BREEZE-M DEB (TANK), 42936

Orbit data source: Space-Track

BREEZE-M DEB (TANK), 42936 is space debris in HEO originally from a launch on Mon, 11 Sep 2017 UTC launched from the Tyuratam Missile And Space Complex (TTMTR). Debris objects in space refer to the collection of defunct objects orbiting the Earth. Examples of debris include non-operational satellites, rocket bodies, and fragments generated from explosions, collisions, or faulty payload assembly.

Loading next visibility...
Identifier
42936, 2017-053C
Orbit
HEO
Country
Flag of CISCIS
Related business
Manufacturer
Khrunichev
Mission
Spacecraft
Bus & Motor
BRIZ TANK, Unknown motor
Mass
~1,000 kg wet, 1,000 kg dry
Launch date (UTC)
2017-09-11 (9 years ago)
Launch vehicle
Unknown
Launch site
Tyuratam Missile And Space Complex (TTMTR)
Object type
Payload
Rocket body
Debris
Shape & HBR
Torus, 2.0 m
Radar Cross Section
8.218 m², Large (>1 m²)

Expand to show TLE details & history
Last TLE update: 14 hours ago

TLE from 14 hours ago
0 BREEZE-M DEB (TANK)
1 42936U 17053C   26262.69871246  .00003999  00000-0  67734-3 0  9991
2 42936  49.4314 185.5317 5102218  72.9921 335.2536  5.44966629175023
Epoch: 2026-09-19T16:46Z
TLE epoch observation values (Epoch: 2026-09-19T16:46:08.756Z)
Latitude
-0.00001°
Longitude
-64.60763°
Altitude
2,396.589 km
Speed
7.851 km/s
True Right ascension
12h 22m 07s
True Declination
0° 00' 00"
Sunlit
Object was in daylight at epoch
Visualization orbit readout
Latitude
Unknown
Longitude
Unknown
Altitude
Unknown
Speed
Unknown
Apparent Right ascension
Unknown
Apparent Declination
Unknown
Sunlit
N/A
Visualization observer readout
Local Sidereal Time
23:43:45
Azimuth
Unknown
Elevation
Unknown
Doppler factor
Unknown
Orbital elements
Apogee altitude
14,222.689 km
Perigee altitude
302.892 km
Semi-major axis
13,640.927 km
Eccentricity
0.51022
Inclination
49.4314°
RAAN
185.5317°
Arg. of periapsis
72.9921°
True anomaly
287.06582°
Mean anomaly
335.2536°
Eccentric anomaly
314.34873°
Mean motion
1.36231 °/min
Orbital period
264.26 mins
BSTAR
0.00067734
Loading maneuver chart data...
Computing Atmospheric mass density...
Loading historical data...
Loading historical data...
Loading historical data...
Loading historical data...
Loading historical data...
Loading historical data...
Loading historical data...
Other satellites on launch #53 in the year 2017 (2017-09-11 UTC)

Documentation

Showing up to 5 results
|